Valley City, ND

8:52 AM CST on February 06, 2016 (GMT -0600)
Valley City

Weather History for KBAC - September, 2013

Change the Weather History Date:

Tuesday, September 10, 2013

  Actual Average (KJMS) Record (KJMS)
Temperature  
Mean Temperature 66 °F 60 °F  
Max Temperature 75 °F 73 °F 99 °F (1952)
Min Temperature 57 °F 47 °F 27 °F (1917)
Degree Days  
Heating Degree Days 0 6  
Month to date heating degree days 49  
Since 1 July heating degree days 115  
Cooling Degree Days 1 1  
Month to date cooling degree days 18  
Year to date cooling degree days 433  
Growing Degree Days 16 (Base 50)    
Moisture  
Dew Point 61 °F    
Average Humidity 88    
Maximum Humidity 100    
Minimum Humidity 57    
Precipitation  
Precipitation 0.00 in 0.08 in 1.21 in (1961)
Month to date precipitation 0.76  
Year to date precipitation 14.95  
Sea Level Pressure  
Sea Level Pressure 29.90 in    
Wind  
Wind Speed 8 mph (West)    
Max Wind Speed 17 mph    
Max Gust Speed 21 mph    
Visibility 8 miles    
Events Fog , Rain    
T = Trace of Precipitation, MM = Missing Value Source: NWS Daily Summary

Daily Weather History Graph

Daily Weather History Graph

Search for Another Location

Airport or City:

Trip Planner

Search our weather history database for the weather conditions in past years. The results will help you decide how hot, cold, wet, or windy it might be!

Date:

Astronomy

Sep. 10, 2013 Rise Set
Actual Time 7:03 AM CDT 7:53 PM CDT
Civil Twilight 6:32 AM CDT 8:24 PM CDT
Nautical Twilight 5:55 AM CDT 9:00 PM CDT
Astronomical Twilight 5:17 AM CDT 9:39 PM CDT
Moon 12:53 PM CDT (9/10) 10:34 PM CDT (9/10)
Length of Visible Light 13h 51m
Length of Day
12h 49m
Waxing Crescent, 28% of the Moon is Illuminated
Sep 10
Waxing Crescent
Sep 12
First Quarter
Sep 19
Full
Sep 26
Last Quarter
Oct 4
New

Hourly Weather History & Observations

Time (CDT) Temp. Dew Point Humidity Pressure Visibility Wind Dir Wind Speed Gust Speed Precip Events Conditions
12:15 AM 59.0 °F 59.0 °F 100% 29.81 in 1.5 mi South 3.5 mph - N/A   Overcast
12:35 AM 59.0 °F 59.0 °F 100% 29.81 in 5.0 mi SSW 5.8 mph - N/A   Mostly Cloudy
12:55 AM 59.0 °F 59.0 °F 100% 29.81 in 4.0 mi Calm Calm - N/A   Partly Cloudy
1:15 AM 59.0 °F 59.0 °F 100% 29.81 in 0.8 mi South 4.6 mph - N/A   Mostly Cloudy
1:35 AM 59.0 °F 59.0 °F 100% 29.81 in 2.5 mi South 3.5 mph - N/A   Scattered Clouds
1:55 AM 59.0 °F 59.0 °F 100% 29.82 in 0.5 mi North 11.5 mph - N/A Fog Fog
2:15 AM 62.6 °F 62.6 °F 100% 29.84 in 10.0 mi North 8.1 mph - N/A   Mostly Cloudy
2:35 AM 62.6 °F 62.6 °F 100% 29.83 in 10.0 mi ENE 4.6 mph - N/A   Overcast
2:55 AM 60.8 °F 60.8 °F 100% 29.83 in 10.0 mi SSW 3.5 mph - N/A   Overcast
3:15 AM 59.0 °F 59.0 °F 100% 29.83 in 8.0 mi South 4.6 mph - N/A   Overcast
3:35 AM 59.0 °F 59.0 °F 100% 29.82 in 5.0 mi South 6.9 mph - N/A   Scattered Clouds
3:55 AM 59.0 °F 59.0 °F 100% 29.83 in 2.0 mi South 5.8 mph - N/A   Clear
4:15 AM 59.0 °F 59.0 °F 100% 29.83 in 0.8 mi South 5.8 mph - N/A   Mist
4:35 AM 59.0 °F 59.0 °F 100% 29.83 in 0.5 mi SW 4.6 mph - N/A Fog Fog
4:55 AM 59.0 °F 59.0 °F 100% 29.84 in 4.0 mi SW 6.9 mph - N/A   Clear
5:15 AM 59.0 °F 59.0 °F 100% 29.84 in 0.2 mi SW 6.9 mph - N/A Fog Fog
5:35 AM 59.0 °F 59.0 °F 100% 29.84 in 5.0 mi WSW 8.1 mph - N/A   Partly Cloudy
5:55 AM 59.0 °F 59.0 °F 100% 29.85 in 10.0 mi West 10.4 mph - N/A   Clear
6:15 AM 59.0 °F 59.0 °F 100% 29.85 in 10.0 mi WNW 11.5 mph - N/A   Clear
6:35 AM 59.0 °F 59.0 °F 100% 29.86 in 10.0 mi WNW 11.5 mph - N/A   Clear
6:55 AM 59.0 °F 59.0 °F 100% 29.87 in 5.0 mi NW 17.3 mph - N/A   Mostly Cloudy
7:15 AM 57.2 °F 57.2 °F 100% 29.88 in 1.8 mi NW 13.8 mph - N/A   Overcast
7:35 AM 59.0 °F 59.0 °F 100% 29.89 in 2.0 mi WNW 11.5 mph - N/A   Overcast
7:55 AM 59.0 °F 59.0 °F 100% 29.89 in 4.0 mi WNW 10.4 mph - N/A   Overcast
8:15 AM 59.0 °F 59.0 °F 100% 29.89 in 5.0 mi WNW 9.2 mph 18.4 mph N/A   Overcast
8:35 AM 60.8 °F 60.8 °F 100% 29.89 in 7.0 mi WNW 12.7 mph 20.7 mph N/A   Overcast
8:55 AM 62.6 °F 62.6 °F 100% 29.90 in 10.0 mi WNW 10.4 mph - N/A   Overcast
9:15 AM 62.6 °F 62.6 °F 100% 29.90 in 10.0 mi WNW 10.4 mph - N/A   Overcast
9:35 AM 62.6 °F 62.6 °F 100% 29.90 in 10.0 mi WNW 11.5 mph - N/A   Overcast
9:55 AM 62.6 °F 62.6 °F 100% 29.91 in 10.0 mi WNW 12.7 mph - N/A   Overcast
10:15 AM 62.6 °F 62.6 °F 100% 29.92 in 10.0 mi WNW 10.4 mph - N/A   Overcast
10:35 AM 62.6 °F 62.6 °F 100% 29.93 in 9.0 mi NW 12.7 mph - N/A   Overcast
10:55 AM 62.6 °F 62.6 °F 100% 29.93 in 5.0 mi NW 12.7 mph - N/A Rain Light Rain
11:15 AM 62.6 °F 62.6 °F 100% 29.94 in 9.0 mi NW 11.5 mph - N/A   Mostly Cloudy
11:35 AM 64.4 °F 64.4 °F 100% 29.94 in 10.0 mi WNW 10.4 mph - N/A   Overcast
11:55 AM 64.4 °F 64.4 °F 100% 29.95 in 10.0 mi WNW 9.2 mph - N/A   Overcast
12:15 PM 66.2 °F 64.4 °F 94% 29.95 in 10.0 mi WNW 8.1 mph - N/A   Overcast
12:35 PM 68.0 °F 64.4 °F 88% 29.95 in 10.0 mi WNW 5.8 mph - N/A   Overcast
12:55 PM 68.0 °F 62.6 °F 83% 29.95 in 10.0 mi NW 8.1 mph - N/A   Overcast
1:15 PM 68.0 °F 62.6 °F 83% 29.95 in 10.0 mi West 5.8 mph - N/A   Overcast
1:35 PM 68.0 °F 62.6 °F 83% 29.95 in 10.0 mi WNW 6.9 mph - N/A   Overcast
1:55 PM 69.8 °F 60.8 °F 73% 29.96 in 10.0 mi WNW 11.5 mph - N/A   Overcast
2:15 PM 71.6 °F 59.0 °F 64% 29.96 in 10.0 mi WNW 9.2 mph - N/A   Scattered Clouds
2:35 PM 71.6 °F 59.0 °F 64% 29.96 in 10.0 mi WNW 9.2 mph - N/A   Partly Cloudy
2:55 PM 73.4 °F 59.0 °F 61% 29.95 in 10.0 mi WNW 8.1 mph - N/A   Partly Cloudy
3:15 PM 73.4 °F 59.0 °F 61% 29.95 in 10.0 mi WNW 9.2 mph - N/A   Clear
3:35 PM 73.4 °F 59.0 °F 61% 29.94 in 10.0 mi West 10.4 mph 17.3 mph N/A   Clear
3:55 PM 73.4 °F 59.0 °F 61% 29.94 in 10.0 mi West 9.2 mph - N/A   Clear
4:15 PM 75.2 °F 59.0 °F 57% 29.93 in 10.0 mi West 11.5 mph - N/A   Clear
4:35 PM 75.2 °F 59.0 °F 57% 29.93 in 10.0 mi West 15.0 mph - N/A   Clear
4:55 PM 75.2 °F 59.0 °F 57% 29.93 in 10.0 mi West 10.4 mph - N/A   Clear
5:15 PM 75.2 °F 59.0 °F 57% 29.93 in 10.0 mi WSW 10.4 mph - N/A   Clear
5:35 PM 75.2 °F 59.0 °F 57% 29.93 in 10.0 mi WSW 10.4 mph - N/A   Clear
5:55 PM 75.2 °F 59.0 °F 57% 29.93 in 10.0 mi WSW 9.2 mph - N/A   Clear
6:15 PM 75.2 °F 60.8 °F 61% 29.92 in 10.0 mi SW 11.5 mph - N/A   Clear
6:35 PM 75.2 °F 60.8 °F 61% 29.92 in 10.0 mi SW 10.4 mph - N/A   Clear
6:55 PM 73.4 °F 60.8 °F 65% 29.92 in 10.0 mi SW 9.2 mph - N/A   Clear
7:15 PM 73.4 °F 62.6 °F 69% 29.92 in 10.0 mi SW 9.2 mph - N/A   Clear
7:35 PM 73.4 °F 62.6 °F 69% 29.92 in 10.0 mi SW 9.2 mph - N/A   Clear
7:55 PM 71.6 °F 62.6 °F 73% 29.93 in 10.0 mi SW 10.4 mph - N/A   Clear
8:15 PM 69.8 °F 62.6 °F 78% 29.93 in 10.0 mi SW 9.2 mph - N/A   Clear
8:35 PM 68.0 °F 62.6 °F 83% 29.93 in 10.0 mi SW 9.2 mph - N/A   Clear
8:55 PM 68.0 °F 62.6 °F 83% 29.94 in 10.0 mi WSW 10.4 mph - N/A   Clear
9:15 PM 66.2 °F 62.6 °F 88% 29.95 in 10.0 mi WSW 9.2 mph - N/A   Clear
9:35 PM 66.2 °F 62.6 °F 88% 29.95 in 10.0 mi WSW 8.1 mph - N/A   Clear
9:55 PM 64.4 °F 62.6 °F 94% 29.95 in 10.0 mi WSW 9.2 mph - N/A   Clear
10:15 PM 62.6 °F 62.6 °F 100% 29.95 in 10.0 mi WSW 11.5 mph - N/A   Clear
10:35 PM 64.4 °F 62.6 °F 94% 29.95 in 10.0 mi WSW 10.4 mph - N/A   Scattered Clouds
10:55 PM 64.4 °F 62.6 °F 94% 29.95 in 10.0 mi WSW 11.5 mph - N/A   Mostly Cloudy
11:15 PM 62.6 °F 62.6 °F 100% 29.96 in 10.0 mi WSW 10.4 mph - N/A   Scattered Clouds
11:35 PM 64.4 °F 62.6 °F 94% 29.96 in 10.0 mi WSW 11.5 mph - N/A   Scattered Clouds
11:55 PM 62.6 °F 60.8 °F 94% 29.96 in 10.0 mi WSW 11.5 mph - N/A   Clear